| time (UTC) | temp F | wind direction | speed MPH | gust MPH | rain 1hr in | rain 24hr in | rain mn in | humidity % | barometer mb |
| 20260905234527 | 72 | 281 | 0.0 | 1.0 | 0.00 | 0.00 | 0.00 | 52 | 1016.2 |
| 20260905234022 | 72 | 167 | 0.0 | 2.0 | 0.00 | 0.00 | 0.00 | 51 | 1016.2 |
| 20260905233516 | 72 | 233 | 0.0 | 2.0 | 0.00 | 0.00 | 0.00 | 51 | 1016.2 |
| 20260905233031 | 72 | 158 | 0.0 | 2.0 | 0.00 | 0.00 | 0.00 | 51 | 1016.3 |
| 20260905232519 | 72 | 160 | 0.0 | 2.0 | 0.00 | 0.00 | 0.00 | 52 | 1016.3 |
| 20260905232019 | 72 | 76 | 0.0 | 6.0 | 0.00 | 0.00 | 0.00 | 53 | 1016.4 |
| 20260905231512 | 71 | 321 | 1.0 | 81.0 | 0.00 | 0.00 | 0.00 | 53 | 1016.5 |
| 20260905231009 | 72 | 332 | 14.0 | 81.0 | 0.00 | 0.00 | 0.00 | 54 | 1016.5 |
| 20260905230508 | 72 | 287 | 10.0 | 58.0 | 0.00 | 0.00 | 0.00 | 52 | 1016.6 |
| 20260905230017 | 72 | 353 | 17.0 | 54.0 | 0.00 | 0.00 | 0.00 | 53 | 1016.6 |
| 20260905225513 | 73 | 5 | 3.0 | 5.0 | 0.00 | 0.00 | 0.00 | 52 | 1016.5 |
| 20260905225010 | 72 | 303 | 1.0 | 6.0 | 0.00 | 0.00 | 0.00 | 53 | 1016.6 |
| 20260905224523 | 72 | 340 | 2.0 | 6.0 | 0.00 | 0.00 | 0.00 | 54 | 1016.7 |
| 20260905224014 | 72 | 118 | 0.0 | 6.0 | 0.00 | 0.00 | 0.00 | 54 | 1016.7 |
| 20260905223513 | 72 | 88 | 3.0 | 35.0 | 0.00 | 0.01 | 0.00 | 55 | 1016.7 |
| 20260905223035 | 71 | 68 | 1.0 | 35.0 | 0.00 | 0.01 | 0.00 | 55 | 1016.8 |
| 20260905222517 | 71 | 63 | 0.0 | 4.0 | 0.00 | 0.01 | 0.00 | 55 | 1016.8 |
| 20260905222022 | 70 | 91 | 1.0 | 4.0 | 0.00 | 0.01 | 0.00 | 55 | 1016.9 |
| 20260905221542 | 70 | 47 | 0.0 | 4.0 | 0.00 | 0.02 | 0.00 | 55 | 1017.0 |
| 20260905221016 | 70 | 48 | 2.0 | 4.0 | 0.00 | 0.02 | 0.00 | 55 | 1017.0 |
| 20260905220516 | 70 | 72 | 0.0 | 4.0 | 0.00 | 0.02 | 0.00 | 55 | 1017.0 |
| 20260905220034 | 70 | 52 | 2.0 | 4.0 | 0.00 | 0.02 | 0.00 | 56 | 1017.1 |
| 20260905215511 | 70 | 37 | 1.0 | 5.0 | 0.00 | 0.02 | 0.00 | 55 | 1017.0 |
| 20260905215010 | 71 | 20 | 2.0 | 6.0 | 0.00 | 0.02 | 0.00 | 55 | 1017.1 |
| 20260905214517 | 71 | 67 | 3.0 | 6.0 | 0.00 | 0.03 | 0.00 | 55 | 1017.1 |
| 20260905214012 | 71 | 54 | 0.0 | 8.0 | 0.00 | 0.19 | 0.00 | 55 | 1017.1 |
| 20260905213512 | 71 | 57 | 3.0 | 8.0 | 0.00 | 0.31 | 0.00 | 55 | 1017.1 |
| 20260905213025 | 71 | 2 | 3.0 | 7.0 | 0.00 | 0.35 | 0.00 | 55 | 1017.1 |
| 20260905212513 | 71 | 282 | 0.0 | 4.0 | 0.00 | 0.38 | 0.00 | 54 | 1017.0 |
| 20260905212017 | 70 | 62 | 0.0 | 4.0 | 0.00 | 0.38 | 0.00 | 55 | 1017.0 |
| 20260905211539 | 71 | 92 | 2.0 | 4.0 | 0.00 | 0.38 | 0.00 | 53 | 1017.0 |
| 20260905211017 | 71 | 239 | 0.0 | 4.0 | 0.00 | 0.38 | 0.00 | 53 | 1017.0 |
| 20260905210518 | 72 | 113 | 1.0 | 4.0 | 0.00 | 0.38 | 0.00 | 52 | 1017.1 |
| 20260905210034 | 72 | 197 | 0.0 | 5.0 | 0.00 | 0.38 | 0.00 | 53 | 1017.2 |
| 20260905205517 | 71 | 214 | 3.0 | 5.0 | 0.00 | 0.38 | 0.00 | 54 | 1017.3 |
| 20260905205019 | 71 | 238 | 1.0 | 4.0 | 0.00 | 0.38 | 0.00 | 54 | 1017.4 |
| 20260905204531 | 71 | 105 | 1.0 | 4.0 | 0.00 | 0.38 | 0.00 | 55 | 1017.4 |
| 20260905204019 | 71 | 90 | 1.0 | 4.0 | 0.00 | 0.38 | 0.00 | 54 | 1017.5 |
| 20260905203511 | 71 | 169 | 1.0 | 4.0 | 0.00 | 0.38 | 0.00 | 55 | 1017.4 |
| 20260905203018 | 70 | 86 | 2.0 | 4.0 | 0.00 | 0.38 | 0.00 | 56 | 1017.4 |
| 20260905202513 | 70 | 105 | 2.0 | 5.0 | 0.00 | 0.38 | 0.00 | 56 | 1017.3 |
| 20260905202013 | 70 | 75 | 2.0 | 5.0 | 0.00 | 0.38 | 0.00 | 57 | 1017.4 |
| 20260905201525 | 69 | 24 | 2.0 | 6.0 | 0.00 | 0.38 | 0.00 | 60 | 1017.4 |
| 20260905201014 | 69 | 32 | 3.0 | 6.0 | 0.00 | 0.38 | 0.00 | 58 | 1017.4 |
| 20260905200515 | 69 | 1 | 2.0 | 6.0 | 0.00 | 0.38 | 0.00 | 60 | 1017.5 |
| 20260905200047 | 68 | 297 | 1.0 | 4.0 | 0.00 | 0.38 | 0.00 | 61 | 1017.4 |
| 20260905195518 | 68 | 302 | 0.0 | 4.0 | 0.00 | 0.38 | 0.00 | 61 | 1017.5 |
| 20260905195021 | 68 | 37 | 2.0 | 6.0 | 0.00 | 0.38 | 0.00 | 59 | 1017.6 |
| 20260905194535 | 69 | 90 | 3.0 | 6.0 | 0.00 | 0.38 | 0.00 | 60 | 1017.7 |
| 20260905194018 | 68 | 227 | 0.0 | 4.0 | 0.00 | 0.38 | 0.00 | 61 | 1017.7 |
| 20260905193518 | 67 | 216 | 2.0 | 5.0 | 0.00 | 0.38 | 0.00 | 62 | 1017.8 |
| 20260905193031 | 67 | 49 | 2.0 | 6.0 | 0.00 | 0.38 | 0.00 | 61 | 1017.8 |
| 20260905192520 | 67 | 94 | 2.0 | 6.0 | 0.00 | 0.38 | 0.00 | 63 | 1017.9 |
| 20260905192019 | 67 | 94 | 2.0 | 6.0 | 0.00 | 0.38 | 0.00 | 66 | 1017.9 |
| 20260905191526 | 66 | 103 | 3.0 | 6.0 | 0.00 | 0.38 | 0.00 | 65 | 1018.0 |
| 20260905191011 | 67 | 65 | 2.0 | 6.0 | 0.00 | 0.38 | 0.00 | 65 | 1018.0 |
| 20260905190513 | 67 | 218 | 1.0 | 6.0 | 0.00 | 0.38 | 0.00 | 66 | 1018.0 |
| 20260905190028 | 66 | 62 | 3.0 | 5.0 | 0.00 | 0.38 | 0.00 | 66 | 1018.1 |
| 20260905185516 | 67 | 28 | 2.0 | 8.0 | 0.00 | 0.38 | 0.00 | 67 | 1018.2 |
| 20260905185019 | 67 | 107 | 3.0 | 8.0 | 0.00 | 0.38 | 0.00 | 68 | 1018.1 |
| 20260905184534 | 66 | 70 | 1.0 | 6.0 | 0.00 | 0.38 | 0.00 | 67 | 1018.2 |
| 20260905184019 | 66 | 119 | 0.0 | 4.0 | 0.00 | 0.38 | 0.00 | 68 | 1018.2 |
| 20260905183515 | 65 | 1 | 0.0 | 5.0 | 0.00 | 0.38 | 0.00 | 69 | 1018.3 |
| 20260905183033 | 64 | 110 | 0.0 | 5.0 | 0.00 | 0.38 | 0.00 | 69 | 1018.2 |
| 20260905182522 | 64 | 41 | 3.0 | 5.0 | 0.00 | 0.38 | 0.00 | 69 | 1018.1 |
| 20260905182019 | 64 | 101 | 2.0 | 6.0 | 0.00 | 0.38 | 0.00 | 69 | 1018.3 |
| 20260905181519 | 64 | 174 | 4.0 | 6.0 | 0.00 | 0.38 | 0.00 | 68 | 1018.3 |
| 20260905181003 | 65 | 77 | 0.0 | 3.0 | 0.00 | 0.38 | 0.00 | 69 | 1018.3 |
| 20260905180503 | 64 | 108 | 0.0 | 4.0 | 0.00 | 0.38 | 0.00 | 69 | 1018.3 |
| 20260905180004 | 65 | 171 | 1.0 | 4.0 | 0.00 | 0.38 | 0.00 | 69 | 1018.3 |
| 20260905175503 | 64 | 122 | 1.0 | 5.0 | 0.00 | 0.38 | 0.00 | 71 | 1018.3 |
| 20260905175004 | 63 | 186 | 1.0 | 5.0 | 0.00 | 0.38 | 0.00 | 73 | 1018.3 |
| 20260905174506 | 63 | 93 | 0.0 | 6.0 | 0.00 | 0.38 | 0.00 | 72 | 1018.4 |
| 20260905174004 | 63 | 40 | 3.0 | 6.0 | 0.00 | 0.38 | 0.00 | 73 | 1018.3 |
| 20260905173507 | 63 | 63 | 0.0 | 5.0 | 0.00 | 0.38 | 0.00 | 74 | 1018.3 |
| 20260905173009 | 63 | 102 | 1.0 | 4.0 | 0.00 | 0.38 | 0.00 | 74 | 1018.3 |
| 20260905172508 | 62 | 226 | 0.0 | 4.0 | 0.00 | 0.38 | 0.00 | 76 | 1018.3 |
| 20260905172008 | 62 | 94 | 1.0 | 4.0 | 0.00 | 0.38 | 0.00 | 75 | 1018.4 |
| 20260905171532 | 63 | 68 | 0.0 | 0.0 | 0.00 | 0.38 | 0.00 | 76 | 1018.3 |
| 20260905171013 | 62 | 313 | 0.0 | 0.0 | 0.00 | 0.38 | 0.00 | 77 | 1018.3 |
| 20260905170510 | 62 | 129 | 0.0 | 21.0 | 0.00 | 0.38 | 0.00 | 78 | 1018.4 |
| 20260905170027 | 61 | 155 | 0.0 | 21.0 | 0.00 | 0.38 | 0.00 | 78 | 1018.4 |
| 20260905165513 | 61 | 224 | 0.0 | 3.0 | 0.00 | 0.38 | 0.00 | 80 | 1018.4 |
| 20260905165004 | 60 | 165 | 0.0 | 3.0 | 0.00 | 0.38 | 0.00 | 81 | 1018.4 |
| 20260905164506 | 60 | 96 | 1.0 | 3.0 | 0.00 | 0.38 | 0.00 | 82 | 1018.3 |
| 20260905164003 | 59 | 74 | 1.0 | 3.0 | 0.00 | 0.38 | 0.00 | 83 | 1018.3 |
| 20260905163504 | 59 | 111 | 1.0 | 3.0 | 0.00 | 0.38 | 0.00 | 83 | 1018.4 |
| 20260905163007 | 58 | 150 | 1.0 | 3.0 | 0.00 | 0.38 | 0.00 | 86 | 1018.4 |
| 20260905162503 | 58 | 79 | 1.0 | 3.0 | 0.00 | 0.38 | 0.00 | 87 | 1018.4 |
| 20260905162011 | 58 | 107 | 1.0 | 3.0 | 0.00 | 0.38 | 0.00 | 89 | 1018.4 |
| 20260905161517 | 57 | 152 | 0.0 | 3.0 | 0.00 | 0.38 | 0.00 | 91 | 1018.5 |
| 20260905161010 | 57 | 150 | 0.0 | 2.0 | 0.00 | 0.38 | 0.00 | 91 | 1018.5 |
| 20260905160509 | 56 | 78 | 0.0 | 2.0 | 0.00 | 0.38 | 0.00 | 91 | 1018.6 |
| 20260905160027 | 56 | 78 | 0.0 | 2.0 | 0.00 | 0.38 | 0.00 | 91 | 1018.6 |
| 20260905155514 | 56 | 108 | 0.0 | 2.0 | 0.00 | 0.38 | 0.00 | 92 | 1018.6 |
| 20260905155010 | 56 | 106 | 1.0 | 3.0 | 0.00 | 0.38 | 0.00 | 93 | 1018.5 |
| 20260905154544 | 55 | 98 | 1.0 | 3.0 | 0.00 | 0.39 | 0.00 | 93 | 1018.5 |
| 20260905154012 | 55 | 233 | 0.0 | 3.0 | 0.00 | 0.39 | 0.00 | 93 | 1018.5 |
| 20260905153515 | 55 | 119 | 0.0 | 2.0 | 0.00 | 0.39 | 0.00 | 93 | 1018.6 |
| 20260905153007 | 55 | 64 | 0.0 | 0.0 | 0.00 | 0.39 | 0.00 | 93 | 1018.6 |
| 20260905152504 | 55 | 97 | 0.0 | 2.0 | 0.00 | 0.39 | 0.00 | 94 | 1018.6 |
| 20260905152004 | 55 | 157 | 0.0 | 2.0 | 0.00 | 0.39 | 0.00 | 94 | 1018.6 |
| 20260905151511 | 55 | 97 | 0.0 | 2.0 | 0.00 | 0.39 | 0.00 | 94 | 1018.5 |
| 20260905151007 | 54 | 120 | 0.0 | 0.0 | 0.00 | 0.39 | 0.00 | 94 | 1018.5 |
| 20260905150507 | 54 | 130 | 0.0 | 1.0 | 0.00 | 0.39 | 0.00 | 94 | 1018.5 |
| 20260905150012 | 54 | 214 | 0.0 | 1.0 | 0.00 | 0.39 | 0.00 | 94 | 1018.6 |
| 20260905145509 | 54 | 229 | 0.0 | 0.0 | 0.00 | 0.39 | 0.00 | 94 | 1018.5 |
| 20260905145011 | 54 | 229 | 0.0 | 0.0 | 0.00 | 0.39 | 0.00 | 94 | 1018.5 |
| 20260905144526 | 53 | 165 | 0.0 | 0.0 | 0.00 | 0.39 | 0.00 | 94 | 1018.5 |
| 20260905144012 | 53 | 165 | 0.0 | 0.0 | 0.00 | 0.39 | 0.00 | 94 | 1018.5 |
| 20260905143514 | 53 | 165 | 0.0 | 0.0 | 0.00 | 0.39 | 0.00 | 94 | 1018.5 |
| 20260905143026 | 53 | 165 | 0.0 | 0.0 | 0.00 | 0.39 | 0.00 | 93 | 1018.4 |
| 20260905142515 | 53 | 165 | 0.0 | 0.0 | 0.00 | 0.39 | 0.00 | 93 | 1018.4 |
| 20260905142019 | 53 | 165 | 0.0 | 0.0 | 0.00 | 0.39 | 0.00 | 93 | 1018.4 |
| 20260905141531 | 53 | 165 | 0.0 | 0.0 | 0.00 | 0.39 | 0.00 | 93 | 1018.3 |
| 20260905141006 | 53 | 165 | 0.0 | 0.0 | 0.00 | 0.39 | 0.00 | 93 | 1018.4 |
| 20260905140503 | 53 | 139 | 0.0 | 0.0 | 0.00 | 0.39 | 0.00 | 93 | 1018.4 |
| 20260905140010 | 53 | 139 | 0.0 | 0.0 | 0.00 | 0.39 | 0.00 | 93 | 1018.4 |
| 20260905135509 | 53 | 139 | 0.0 | 0.0 | 0.00 | 0.39 | 0.00 | 93 | 1018.3 |
| 20260905135008 | 53 | 139 | 0.0 | 0.0 | 0.00 | 0.39 | 0.00 | 93 | 1018.4 |
| 20260905134514 | 53 | 139 | 0.0 | 0.0 | 0.00 | 0.39 | 0.00 | 93 | 1018.4 |
| 20260905134010 | 53 | 85 | 0.0 | 0.0 | 0.00 | 0.39 | 0.00 | 93 | 1018.4 |
| 20260905133512 | 53 | 84 | 0.0 | 0.0 | 0.00 | 0.39 | 0.00 | 93 | 1018.2 |
| 20260905133020 | 53 | 84 | 0.0 | 0.0 | 0.00 | 0.39 | 0.00 | 93 | 1018.2 |
| 20260905132511 | 53 | 85 | 0.0 | 0.0 | 0.00 | 0.39 | 0.00 | 93 | 1018.3 |
| 20260905132015 | 53 | 85 | 0.0 | 0.0 | 0.00 | 0.39 | 0.00 | 93 | 1018.3 |
| 20260905131525 | 53 | 85 | 0.0 | 0.0 | 0.00 | 0.39 | 0.00 | 93 | 1018.2 |
| 20260905131016 | 53 | 84 | 0.0 | 1.0 | 0.00 | 0.39 | 0.00 | 93 | 1018.1 |
| 20260905130520 | 53 | 84 | 0.0 | 1.0 | 0.00 | 0.39 | 0.00 | 93 | 1018.0 |
| 20260905130029 | 53 | 84 | 0.0 | 0.0 | 0.00 | 0.39 | 0.00 | 93 | 1017.9 |
| 20260905125516 | 53 | 84 | 0.0 | 0.0 | 0.00 | 0.39 | 0.00 | 93 | 1017.9 |
| 20260905125008 | 53 | 84 | 0.0 | 1.0 | 0.00 | 0.39 | 0.00 | 93 | 1017.9 |
| 20260905124512 | 53 | 84 | 0.0 | 1.0 | 0.00 | 0.39 | 0.00 | 93 | 1017.8 |
| 20260905124007 | 53 | 84 | 0.0 | 0.0 | 0.00 | 0.39 | 0.00 | 93 | 1017.8 |
| 20260905123510 | 53 | 119 | 0.0 | 0.0 | 0.00 | 0.39 | 0.00 | 93 | 1017.8 |
| 20260905123028 | 53 | 119 | 0.0 | 0.0 | 0.00 | 0.39 | 0.00 | 93 | 1017.9 |
| 20260905122516 | 53 | 119 | 0.0 | 0.0 | 0.00 | 0.39 | 0.00 | 93 | 1017.9 |
| 20260905122012 | 53 | 119 | 0.0 | 0.0 | 0.00 | 0.39 | 0.00 | 93 | 1017.9 |
| 20260905121522 | 54 | 119 | 0.0 | 0.0 | 0.00 | 0.39 | 0.00 | 93 | 1017.8 |
| 20260905121012 | 54 | 121 | 0.0 | 0.0 | 0.00 | 0.39 | 0.00 | 93 | 1017.8 |
| 20260905120514 | 54 | 104 | 0.0 | 0.0 | 0.00 | 0.39 | 0.00 | 93 | 1017.8 |
| 20260905120030 | 54 | 104 | 0.0 | 0.0 | 0.00 | 0.39 | 0.00 | 93 | 1017.8 |
| 20260905115516 | 54 | 103 | 0.0 | 0.0 | 0.00 | 0.39 | 0.00 | 93 | 1017.8 |
| 20260905115022 | 54 | 103 | 0.0 | 0.0 | 0.00 | 0.40 | 0.00 | 93 | 1017.8 |
| 20260905114529 | 54 | 103 | 0.0 | 0.0 | 0.00 | 0.40 | 0.00 | 93 | 1017.8 |
| 20260905114017 | 54 | 103 | 0.0 | 0.0 | 0.00 | 0.40 | 0.00 | 93 | 1017.8 |
| 20260905113522 | 54 | 103 | 0.0 | 0.0 | 0.00 | 0.40 | 0.00 | 93 | 1017.7 |
| 20260905113013 | 54 | 103 | 0.0 | 0.0 | 0.00 | 0.41 | 0.00 | 93 | 1017.8 |
| 20260905112508 | 54 | 103 | 0.0 | 0.0 | 0.00 | 0.41 | 0.00 | 93 | 1017.8 |
| 20260905112008 | 54 | 103 | 0.0 | 0.0 | 0.00 | 0.41 | 0.00 | 93 | 1017.7 |
| 20260905111517 | 54 | 103 | 0.0 | 0.0 | 0.00 | 0.41 | 0.00 | 93 | 1017.7 |
| 20260905111010 | 54 | 103 | 0.0 | 0.0 | 0.00 | 0.41 | 0.00 | 93 | 1017.7 |
| 20260905110517 | 54 | 103 | 0.0 | 0.0 | 0.00 | 0.41 | 0.00 | 93 | 1017.7 |
| 20260905110024 | 54 | 103 | 0.0 | 0.0 | 0.00 | 0.41 | 0.00 | 93 | 1017.7 |
| 20260905105515 | 54 | 103 | 0.0 | 0.0 | 0.00 | 0.42 | 0.00 | 93 | 1017.7 |
| 20260905105020 | 54 | 103 | 0.0 | 0.0 | 0.00 | 0.42 | 0.00 | 93 | 1017.7 |
| 20260905104535 | 54 | 103 | 0.0 | 0.0 | 0.00 | 0.42 | 0.00 | 93 | 1017.7 |
| 20260905104020 | 54 | 103 | 0.0 | 0.0 | 0.00 | 0.42 | 0.00 | 93 | 1017.7 |
| 20260905103518 | 54 | 103 | 0.0 | 0.0 | 0.00 | 0.42 | 0.00 | 93 | 1017.7 |
| 20260905103032 | 54 | 103 | 0.0 | 0.0 | 0.00 | 0.42 | 0.00 | 93 | 1017.8 |
| 20260905102515 | 54 | 103 | 0.0 | 0.0 | 0.00 | 0.42 | 0.00 | 93 | 1017.8 |
| 20260905102014 | 55 | 103 | 0.0 | 0.0 | 0.00 | 0.42 | 0.00 | 93 | 1017.8 |
| 20260905101535 | 55 | 103 | 0.0 | 0.0 | 0.00 | 0.42 | 0.00 | 93 | 1017.9 |
| 20260905101018 | 55 | 103 | 0.0 | 0.0 | 0.00 | 0.42 | 0.00 | 93 | 1017.9 |
| 20260905100510 | 55 | 103 | 0.0 | 0.0 | 0.00 | 0.42 | 0.00 | 93 | 1017.8 |
| 20260905100020 | 55 | 103 | 0.0 | 0.0 | 0.00 | 0.42 | 0.00 | 93 | 1017.8 |
| 20260905095514 | 55 | 103 | 0.0 | 0.0 | 0.00 | 0.42 | 0.00 | 93 | 1017.8 |
| 20260905095013 | 55 | 103 | 0.0 | 0.0 | 0.00 | 0.42 | 0.00 | 93 | 1017.8 |
| 20260905094523 | 55 | 103 | 0.0 | 0.0 | 0.00 | 0.42 | 0.00 | 93 | 1017.8 |
| 20260905094015 | 55 | 103 | 0.0 | 0.0 | 0.00 | 0.42 | 0.00 | 93 | 1017.8 |
| 20260905093515 | 55 | 103 | 0.0 | 0.0 | 0.00 | 0.42 | 0.00 | 93 | 1017.7 |
| 20260905093027 | 54 | 102 | 0.0 | 0.0 | 0.00 | 0.42 | 0.00 | 93 | 1017.7 |
| 20260905092516 | 55 | 102 | 0.0 | 0.0 | 0.00 | 0.42 | 0.00 | 93 | 1017.8 |
| 20260905092016 | 55 | 103 | 0.0 | 0.0 | 0.00 | 0.42 | 0.00 | 93 | 1017.8 |
| 20260905091508 | 55 | 102 | 0.0 | 0.0 | 0.00 | 0.42 | 0.00 | 93 | 1017.7 |
| 20260905091006 | 54 | 102 | 0.0 | 0.0 | 0.00 | 0.42 | 0.00 | 93 | 1017.8 |
| 20260905090509 | 54 | 102 | 0.0 | 0.0 | 0.00 | 0.42 | 0.00 | 93 | 1017.8 |
| 20260905090003 | 54 | 102 | 0.0 | 0.0 | 0.00 | 0.42 | 0.00 | 93 | 1017.8 |
| 20260905085503 | 54 | 102 | 0.0 | 0.0 | 0.00 | 0.42 | 0.00 | 93 | 1017.8 |
| 20260905085003 | 54 | 102 | 0.0 | 0.0 | 0.00 | 0.42 | 0.00 | 93 | 1017.7 |
| 20260905084510 | 54 | 102 | 0.0 | 0.0 | 0.00 | 0.42 | 0.00 | 93 | 1017.7 |
| 20260905084002 | 54 | 102 | 0.0 | 0.0 | 0.00 | 0.42 | 0.00 | 92 | 1017.7 |
| 20260905083503 | 54 | 102 | 0.0 | 0.0 | 0.00 | 0.42 | 0.00 | 92 | 1017.6 |
| 20260905083004 | 54 | 102 | 0.0 | 0.0 | 0.00 | 0.42 | 0.00 | 92 | 1017.6 |
| 20260905082503 | 55 | 102 | 0.0 | 0.0 | 0.00 | 0.42 | 0.00 | 92 | 1017.5 |
| 20260905082003 | 55 | 102 | 0.0 | 0.0 | 0.00 | 0.42 | 0.00 | 93 | 1017.5 |
| 20260905081508 | 55 | 102 | 0.0 | 0.0 | 0.00 | 0.42 | 0.00 | 92 | 1017.5 |
| 20260905081009 | 55 | 102 | 0.0 | 0.0 | 0.00 | 0.42 | 0.00 | 92 | 1017.5 |
| 20260905080506 | 55 | 102 | 0.0 | 0.0 | 0.00 | 0.42 | 0.00 | 92 | 1017.5 |
| 20260905080022 | 55 | 102 | 0.0 | 0.0 | 0.00 | 0.42 | 0.00 | 92 | 1017.5 |
| 20260905075510 | 55 | 102 | 0.0 | 0.0 | 0.00 | 0.42 | 0.00 | 92 | 1017.5 |
| 20260905075009 | 55 | 105 | 0.0 | 0.0 | 0.00 | 0.42 | 0.00 | 92 | 1017.5 |
| 20260905074514 | 55 | 105 | 0.0 | 0.0 | 0.00 | 0.42 | 0.00 | 92 | 1017.5 |
| 20260905074003 | 55 | 105 | 0.0 | 0.0 | 0.00 | 0.42 | 0.00 | 92 | 1017.5 |
| 20260905073503 | 55 | 105 | 0.0 | 0.0 | 0.00 | 0.42 | 0.00 | 92 | 1017.5 |
| 20260905073015 | 55 | 105 | 0.0 | 0.0 | 0.00 | 0.42 | 0.00 | 92 | 1017.5 |
| 20260905072503 | 55 | 105 | 0.0 | 0.0 | 0.00 | 0.42 | 0.00 | 92 | 1017.5 |
| 20260905072003 | 55 | 105 | 0.0 | 0.0 | 0.00 | 0.42 | 0.00 | 92 | 1017.5 |
| 20260905071503 | 55 | 105 | 0.0 | 0.0 | 0.00 | 0.42 | 0.00 | 92 | 1017.5 |
| 20260905071006 | 55 | 105 | 0.0 | 0.0 | 0.00 | 0.42 | 0.00 | 92 | 1017.5 |
| 20260905070509 | 55 | 105 | 0.0 | 0.0 | 0.00 | 0.42 | 0.00 | 92 | 1017.4 |
| 20260905070007 | 55 | 106 | 0.0 | 0.0 | 0.00 | 0.42 | 0.00 | 92 | 1017.3 |
| 20260905065505 | 55 | 106 | 0.0 | 0.0 | 0.00 | 0.42 | 0.42 | 92 | 1017.2 |
| 20260905065009 | 55 | 106 | 0.0 | 0.0 | 0.00 | 0.42 | 0.42 | 92 | 1017.2 |
| 20260905064514 | 55 | 106 | 0.0 | 0.0 | 0.00 | 0.42 | 0.42 | 92 | 1017.1 |
| 20260905064013 | 55 | 106 | 0.0 | 0.0 | 0.00 | 0.42 | 0.42 | 92 | 1017.2 |
| 20260905063509 | 55 | 106 | 0.0 | 1.0 | 0.00 | 0.42 | 0.42 | 92 | 1017.1 |
| 20260905063018 | 55 | 82 | 0.0 | 1.0 | 0.00 | 0.42 | 0.42 | 92 | 1017.0 |
| 20260905062510 | 55 | 116 | 0.0 | 1.0 | 0.00 | 0.42 | 0.42 | 92 | 1017.0 |
| 20260905062007 | 55 | 147 | 0.0 | 0.0 | 0.00 | 0.42 | 0.42 | 92 | 1016.9 |
| 20260905061504 | 55 | 8 | 0.0 | 1.0 | 0.00 | 0.42 | 0.42 | 92 | 1016.8 |
| 20260905061003 | 55 | 8 | 0.0 | 1.0 | 0.00 | 0.42 | 0.42 | 92 | 1016.8 |
| 20260905060502 | 55 | 8 | 0.0 | 0.0 | 0.00 | 0.42 | 0.42 | 92 | 1016.8 |
| 20260905060006 | 55 | 8 | 0.0 | 0.0 | 0.00 | 0.42 | 0.42 | 92 | 1016.8 |
| 20260905055506 | 55 | 8 | 0.0 | 0.0 | 0.00 | 0.42 | 0.42 | 92 | 1016.8 |
| 20260905055006 | 55 | 8 | 0.0 | 0.0 | 0.00 | 0.42 | 0.42 | 92 | 1016.9 |
| 20260905054511 | 55 | 8 | 0.0 | 0.0 | 0.00 | 0.42 | 0.42 | 92 | 1016.9 |
| 20260905054008 | 55 | 8 | 0.0 | 0.0 | 0.00 | 0.42 | 0.42 | 92 | 1016.8 |
| 20260905053511 | 55 | 8 | 0.0 | 0.0 | 0.00 | 0.42 | 0.42 | 92 | 1016.9 |
| 20260905053020 | 55 | 8 | 0.0 | 0.0 | 0.00 | 0.42 | 0.42 | 92 | 1016.8 |
| 20260905052511 | 55 | 8 | 0.0 | 2.0 | 0.00 | 0.42 | 0.42 | 92 | 1016.8 |
| 20260905052013 | 55 | 8 | 0.0 | 2.0 | 0.00 | 0.42 | 0.42 | 92 | 1016.8 |
| 20260905051532 | 55 | 10 | 0.0 | 2.0 | 0.00 | 0.42 | 0.42 | 92 | 1016.8 |
| 20260905051013 | 55 | 4 | 0.0 | 1.0 | 0.00 | 0.42 | 0.42 | 92 | 1016.8 |
| 20260905050512 | 55 | 45 | 0.0 | 0.0 | 0.00 | 0.42 | 0.42 | 92 | 1016.8 |
| 20260905050022 | 55 | 41 | 0.0 | 0.0 | 0.00 | 0.42 | 0.42 | 91 | 1016.8 |
| 20260905045502 | 55 | 100 | 0.0 | 0.0 | 0.00 | 0.42 | 0.42 | 91 | 1016.8 |
| 20260905045006 | 55 | 100 | 0.0 | 1.0 | 0.00 | 0.42 | 0.42 | 91 | 1016.8 |
| 20260905044515 | 55 | 98 | 0.0 | 1.0 | 0.00 | 0.42 | 0.42 | 92 | 1016.7 |
| 20260905044005 | 55 | 98 | 0.0 | 0.0 | 0.00 | 0.42 | 0.42 | 91 | 1016.7 |
| 20260905043508 | 55 | 98 | 0.0 | 0.0 | 0.00 | 0.42 | 0.42 | 91 | 1016.8 |
| 20260905043012 | 55 | 98 | 0.0 | 0.0 | 0.00 | 0.42 | 0.42 | 91 | 1016.7 |
| 20260905042511 | 55 | 99 | 0.0 | 0.0 | 0.00 | 0.42 | 0.42 | 91 | 1016.7 |
| 20260905042010 | 55 | 99 | 0.0 | 0.0 | 0.00 | 0.42 | 0.42 | 91 | 1016.7 |
| 20260905041516 | 55 | 99 | 0.0 | 1.0 | 0.00 | 0.42 | 0.42 | 91 | 1016.7 |
| 20260905041013 | 55 | 99 | 0.0 | 1.0 | 0.00 | 0.42 | 0.42 | 91 | 1016.7 |
| 20260905040510 | 55 | 97 | 0.0 | 0.0 | 0.00 | 0.42 | 0.42 | 91 | 1016.6 |
| 20260905040026 | 55 | 97 | 0.0 | 0.0 | 0.00 | 0.42 | 0.42 | 90 | 1016.6 |
| 20260905035512 | 56 | 97 | 0.0 | 1.0 | 0.00 | 0.42 | 0.42 | 91 | 1016.5 |
| 20260905035015 | 56 | 97 | 0.0 | 1.0 | 0.00 | 0.42 | 0.42 | 91 | 1016.4 |
| 20260905034532 | 56 | 149 | 0.0 | 0.0 | 0.00 | 0.42 | 0.42 | 90 | 1016.3 |
| 20260905034015 | 56 | 149 | 0.0 | 0.0 | 0.00 | 0.42 | 0.42 | 90 | 1016.3 |
| 20260905033503 | 56 | 149 | 0.0 | 0.0 | 0.00 | 0.42 | 0.42 | 90 | 1016.2 |
| 20260905033008 | 56 | 149 | 0.0 | 0.0 | 0.00 | 0.42 | 0.42 | 89 | 1016.2 |
| 20260905032508 | 56 | 149 | 0.0 | 0.0 | 0.00 | 0.42 | 0.42 | 89 | 1016.3 |
| 20260905032008 | 56 | 149 | 0.0 | 1.0 | 0.00 | 0.42 | 0.42 | 89 | 1016.3 |
| 20260905031513 | 57 | 151 | 0.0 | 1.0 | 0.00 | 0.42 | 0.42 | 89 | 1016.2 |
| 20260905031009 | 57 | 195 | 0.0 | 1.0 | 0.00 | 0.42 | 0.42 | 89 | 1016.2 |
| 20260905030515 | 57 | 121 | 0.0 | 0.0 | 0.00 | 0.42 | 0.42 | 89 | 1016.1 |
| 20260905030030 | 57 | 158 | 0.0 | 0.0 | 0.00 | 0.42 | 0.42 | 89 | 1016.0 |
| 20260905025516 | 57 | 141 | 0.0 | 0.0 | 0.00 | 0.42 | 0.42 | 89 | 1016.1 |
| 20260905025013 | 58 | 145 | 0.0 | 0.0 | 0.00 | 0.42 | 0.42 | 88 | 1016.0 |
| 20260905024526 | 58 | 137 | 0.0 | 0.0 | 0.00 | 0.42 | 0.42 | 88 | 1015.9 |
| 20260905024016 | 58 | 214 | 0.0 | 0.0 | 0.00 | 0.42 | 0.42 | 88 | 1016.0 |
| 20260905023514 | 58 | 214 | 0.0 | 1.0 | 0.00 | 0.42 | 0.42 | 87 | 1016.0 |
| 20260905023034 | 58 | 144 | 0.0 | 1.0 | 0.00 | 0.42 | 0.42 | 87 | 1016.0 |
| 20260905022519 | 59 | 131 | 0.0 | 0.0 | 0.00 | 0.42 | 0.42 | 87 | 1016.1 |
| 20260905022016 | 59 | 130 | 0.0 | 0.0 | 0.00 | 0.42 | 0.42 | 87 | 1016.0 |
| 20260905021508 | 59 | 121 | 0.0 | 0.0 | 0.00 | 0.42 | 0.42 | 87 | 1016.0 |
| 20260905021009 | 59 | 157 | 0.0 | 1.0 | 0.00 | 0.42 | 0.42 | 86 | 1016.0 |
| 20260905020507 | 59 | 224 | 0.0 | 3.0 | 0.00 | 0.42 | 0.42 | 86 | 1016.0 |
| 20260905020014 | 59 | 207 | 0.0 | 3.0 | 0.00 | 0.42 | 0.42 | 86 | 1015.9 |
| 20260905015512 | 59 | 193 | 0.0 | 2.0 | 0.00 | 0.42 | 0.42 | 85 | 1015.8 |
| 20260905015013 | 60 | 231 | 0.0 | 2.0 | 0.00 | 0.42 | 0.42 | 86 | 1015.8 |
| 20260905014523 | 60 | 217 | 0.0 | 2.0 | 0.00 | 0.42 | 0.42 | 86 | 1015.8 |
| 20260905014012 | 60 | 226 | 0.0 | 2.0 | 0.00 | 0.42 | 0.42 | 86 | 1015.7 |
| 20260905013519 | 60 | 238 | 0.0 | 1.0 | 0.00 | 0.42 | 0.42 | 85 | 1015.7 |
| 20260905013026 | 60 | 181 | 0.0 | 1.0 | 0.00 | 0.42 | 0.42 | 85 | 1015.4 |
| 20260905012516 | 60 | 193 | 0.0 | 1.0 | 0.00 | 0.42 | 0.42 | 85 | 1015.4 |
| 20260905012017 | 60 | 241 | 0.0 | 3.0 | 0.00 | 0.42 | 0.42 | 85 | 1015.4 |
| 20260905011530 | 60 | 226 | 0.0 | 3.0 | 0.00 | 0.42 | 0.42 | 85 | 1015.4 |
| 20260905011016 | 60 | 208 | 0.0 | 3.0 | 0.00 | 0.42 | 0.42 | 85 | 1015.4 |
| 20260905010518 | 60 | 259 | 0.0 | 1.0 | 0.00 | 0.42 | 0.42 | 85 | 1015.4 |
| 20260905010032 | 61 | 209 | 0.0 | 1.0 | 0.00 | 0.42 | 0.42 | 86 | 1015.4 |
| 20260905005509 | 61 | 236 | 0.0 | 1.0 | 0.00 | 0.42 | 0.42 | 86 | 1015.3 |
| 20260905005011 | 61 | 235 | 0.0 | 0.0 | 0.00 | 0.42 | 0.42 | 86 | 1015.4 |
| 20260905004518 | 61 | 259 | 0.0 | 0.0 | 0.00 | 0.42 | 0.42 | 86 | 1015.4 |
| 20260905004011 | 60 | 126 | 0.0 | 0.0 | 0.00 | 0.42 | 0.42 | 86 | 1015.3 |
| 20260905003510 | 61 | 225 | 0.0 | 1.0 | 0.00 | 0.42 | 0.42 | 86 | 1015.4 |
| 20260905003025 | 61 | 225 | 0.0 | 1.0 | 0.00 | 0.42 | 0.42 | 86 | 1015.3 |
| 20260905002512 | 60 | 244 | 0.0 | 1.0 | 0.00 | 0.42 | 0.42 | 86 | 1015.3 |
| 20260905002016 | 60 | 318 | 0.0 | 0.0 | 0.00 | 0.42 | 0.42 | 87 | 1015.2 |
| 20260905001530 | 60 | 318 | 0.0 | 0.0 | 0.00 | 0.42 | 0.42 | 87 | 1015.1 |
| 20260905001016 | 60 | 354 | 0.0 | 0.0 | 0.00 | 0.42 | 0.42 | 88 | 1015.1 |
| 20260905000518 | 60 | 354 | 0.0 | 0.0 | 0.00 | 0.42 | 0.42 | 89 | 1015.2 |
| 20260905000036 | 60 | 1 | 0.0 | 1.0 | 0.00 | 0.42 | 0.42 | 89 | 1015.2 |
| 20260904235520 | 60 | 321 | 0.0 | 2.0 | 0.00 | 0.42 | 0.42 | 89 | 1015.3 |
| 20260904235017 | 60 | 336 | 0.0 | 2.0 | 0.00 | 0.42 | 0.42 | 90 | 1015.2 |